This is the latest recevied weather packets stored in our database for station/object K6HFP. If no packets are shown the sender has not sent any weather packets the latest 10 day(s).
| Time | Temp. | Humidity | Pressure | Rain* | Wind** | Luminosity | Snow |
|---|---|---|---|---|---|---|---|
| 1777648670 | 17.22° C | 66% | 1013.1 hPa | 0 mm | - | 266 W/m² | - |
| 1777648365 | 17.78° C | 65% | 1012.8 hPa | 0 mm | - | 238 W/m² | - |
| 1777648062 | 17.22° C | 64% | 1012.8 hPa | 0 mm | - | 218 W/m² | - |
| 1777647758 | 16.67° C | 65% | 1012.7 hPa | 0 mm | - | 218 W/m² | - |
| 1777647455 | 16.67° C | 67% | 1012.9 hPa | 0 mm | - | 197 W/m² | - |
| 1777647152 | 16.11° C | 68% | 1012.5 hPa | 0 mm | - | 180 W/m² | - |
| 1777646848 | 15.56° C | 69% | 1012.8 hPa | 0 mm | - | 153 W/m² | - |
| 1777646544 | 15.56° C | 68% | 1012.7 hPa | 0 mm | - | 106 W/m² | - |
| 1777646240 | 16.11° C | 67% | 1012.4 hPa | 0 mm | - | 122 W/m² | - |
| 1777645938 | 16.67° C | 61% | 1012.4 hPa | 0 mm | - | 64 W/m² | - |
| 1777645635 | 16.67° C | 51% | 1012.4 hPa | 0 mm | - | 62 W/m² | - |
| 1777645330 | 16.11° C | 53% | 1012.4 hPa | 0 mm | - | 62 W/m² | - |
| 1777645026 | 15.56° C | 57% | 1012.4 hPa | 0 mm | - | 61 W/m² | - |
| 1777644724 | 15° C | 60% | 1012.3 hPa | 0 mm | - | 62 W/m² | - |
| 1777644420 | 15.56° C | 64% | 1012.5 hPa | 0 mm | - | 61 W/m² | - |
| 1777644117 | 15.56° C | 54% | 1012.6 hPa | 0 mm | - | 58 W/m² | - |
| 1777643813 | 15.56° C | 55% | 1012.4 hPa | 0 mm | - | 53 W/m² | - |
| 1777643510 | 15.56° C | 55% | 1012.1 hPa | 0 mm | - | 48 W/m² | - |
| 1777643207 | 15.56° C | 53% | 1012.2 hPa | 0 mm | - | 38 W/m² | - |
| 1777642904 | 15.56° C | 53% | 1012.1 hPa | 0 mm | - | 31 W/m² | - |
| 1777642601 | 15.56° C | 53% | 1012 hPa | 0 mm | - | 25 W/m² | - |
| 1777642298 | 15.56° C | 54% | 1011.8 hPa | 0 mm | - | 20 W/m² | - |
| 1777641994 | 15.56° C | 54% | 1011.9 hPa | 0 mm | - | 16 W/m² | - |
| 1777641690 | 15.56° C | 53% | 1011.9 hPa | 0 mm | - | 12 W/m² | - |
| 1777641385 | 15.56° C | 53% | 1011.5 hPa | 0 mm | - | 8 W/m² | - |
* Rain latest hour (hover to see other rain measurements)
** Current wind speed in m/s (hover to see current wind gust speed)